User: anonymous   Login
Location: Unspecified
(0.0000°N, 0.0000°E)
Time: 07:52:50
(UTC+00:00)
Language:

LANDSAT 8 - Orbit

View from above orbital plane
View from above orbital plane
View from above satellite
View from above satellite

Ground track
Ground track

The orbit data is extracted from the following two-line orbital elements,

1 39084U 13008A   15029.66474472  .00000334  00000-0  84239-4 0  7249
2 39084 098.1939 101.6516 0001015 072.3179 287.8134 14.57112662104431
Epoch (UTC): 29 January 2015 15:57:13
Eccentricity: 0.0001015
inclination: 98.1939°
perigee height: 702 km
apogee height: 703 km
right ascension of ascending node: 101.6516°
argument of perigee: 72.3179°
revolutions per day: 14.57112662
mean anomaly at epoch: 287.8134°
orbit number at epoch: 10443

The dashed part of the orbit path shows where the satellite is in the earth's shadow,  

DLR